Location: Kermapucano
(48.0667°N, 3.3000°W)
Time: 20:22:37
(UTC+00:00)

SJ-12 - Pass Details

Date: 29 November 2020
Orbit: 569 x 584 km, 97.7° (Epoch: 24 January)

Event Time Altitude Azimuth Distance (km) Brightness Sun altitude
Rises 05:51:10 0° 8° (N) 2,787 7.4 -17.6°
Reaches altitude 10° 05:53:22 10° 3° (N) 1,884 6.4 -17.2°
Maximum altitude 05:57:18 49° 289° (WNW) 741 4.0 -16.6°
Drops below altitude 10° 06:01:12 10° 214° (SW) 1,869 6.3 -15.9°
Sets 06:03:23 0° 209° (SSW) 2,763 7.3 -15.6°
